TimeNZDT,TemperatureF,Dew PointF,Humidity,Sea Level PressureIn,VisibilityMPH,Wind Direction,Wind SpeedMPH,Gust SpeedMPH,PrecipitationIn,Events,Conditions,WindDirDegrees,DateUTC
12:00 AM,55.4,50.0,82,30.21,6.2,WSW,8.1,-,N/A,,Partly Cloudy,240,2012-10-11 11:00:00
1:00 AM,53.6,48.2,82,30.21,6.2,WSW,6.9,-,N/A,,Partly Cloudy,250,2012-10-11 12:00:00
2:00 AM,50.0,46.4,87,30.21,6.2,NNW,4.6,-,N/A,,Partly Cloudy,330,2012-10-11 13:00:00
3:00 AM,50.0,48.2,94,30.18,6.2,South,1.2,-,N/A,,Partly Cloudy,180,2012-10-11 14:00:00
4:00 AM,50.0,48.2,94,30.18,6.2,SE,2.3,-,N/A,,Partly Cloudy,140,2012-10-11 15:00:00
5:00 AM,48.2,46.4,93,30.18,6.2,East,2.3,-,N/A,,Partly Cloudy,100,2012-10-11 16:00:00
6:00 AM,44.6,44.6,100,30.18,6.2,NNE,4.6,-,N/A,,Partly Cloudy,30,2012-10-11 17:00:00
7:00 AM,48.2,46.4,93,30.18,6.2,NNE,3.5,-,N/A,,Mostly Cloudy,20,2012-10-11 18:00:00
8:00 AM,48.2,48.2,100,30.18,6.2,NNE,4.6,-,N/A,,Partly Cloudy,20,2012-10-11 19:00:00
9:00 AM,55.4,53.6,94,30.18,6.2,NNE,3.5,-,N/A,,Partly Cloudy,20,2012-10-11 20:00:00
10:00 AM,59.0,50.0,72,30.18,6.2,South,3.5,-,N/A,,Partly Cloudy,170,2012-10-11 21:00:00
11:00 AM,59.0,50.0,72,30.18,6.2,SW,3.5,-,N/A,,Scattered Clouds,220,2012-10-11 22:00:00
12:00 PM,64.4,50.0,59,30.15,6.2,NNW,3.5,-,N/A,,Partly Cloudy,330,2012-10-11 23:00:00
1:00 PM,66.2,50.0,56,30.12,6.2,North,4.6,-,N/A,,Partly Cloudy,10,2012-10-12 00:00:00
2:00 PM,66.2,53.6,64,30.09,6.2,North,5.8,-,N/A,,Partly Cloudy,10,2012-10-12 01:00:00
3:00 PM,66.2,53.6,64,30.06,6.2,NE,11.5,-,N/A,,Partly Cloudy,40,2012-10-12 02:00:00
4:00 PM,64.4,55.4,73,30.06,6.2,NE,13.8,-,N/A,,Partly Cloudy,40,2012-10-12 03:00:00
5:00 PM,64.4,53.6,68,30.04,6.2,NNE,11.5,-,N/A,,Partly Cloudy,20,2012-10-12 04:00:00
6:00 PM,62.6,53.6,72,30.01,6.2,NE,11.5,-,N/A,,Partly Cloudy,50,2012-10-12 05:00:00
7:00 PM,60.8,53.6,77,30.01,6.2,NNE,10.4,-,N/A,,Partly Cloudy,20,2012-10-12 06:00:00
8:00 PM,59.0,53.6,82,30.01,6.2,NNE,9.2,-,N/A,,Partly Cloudy,30,2012-10-12 07:00:00
9:00 PM,59.0,55.4,88,30.01,6.2,NE,6.9,-,N/A,,Mostly Cloudy,40,2012-10-12 08:00:00
10:00 PM,59.0,55.4,88,29.98,6.2,NNE,6.9,-,N/A,,Mostly Cloudy,30,2012-10-12 09:00:00
11:00 PM,59.0,55.4,88,29.95,6.2,NNE,8.1,-,N/A,,Scattered Clouds,30,2012-10-12 10:00:00